Simultaneous Nadir Overpasses (SNOs) Predictions

Prediction of SNOs between FY3D and LANDSAT-8 Satellite Orbit:

Table of predicted SNOs for the next 14.0 days since TLE Epoch: 6/22/2024
Index Date (FY3D) Time (FY3D) Lat,Lon (FY3D) SZA (FY3D ) Date (LANDSAT-8) Time (LANDSAT-8) Lat,Lon (LANDSAT-8) SZA (LANDSAT-8 ) Distance(km) Time Diff (sec)
1 06/24/2024 04:40:04 -74.45, -66.06 129.01 06/24/2024 04:40:20 -74.48, -66.00 128.98 3.34 16
2 06/24/2024 05:30:48 74.37, 101.47 50.92 06/24/2024 05:29:47 74.40, 101.46 50.95 3.69 61
3 06/26/2024 20:06:44 74.49,-117.77 51.12 06/26/2024 20:07:22 74.47,-117.78 51.10 2.42 38
4 06/26/2024 20:57:27 -74.40, 49.80 128.98 06/26/2024 20:56:51 -74.40, 49.69 128.98 3.31 36
5 06/29/2024 11:33:24 -74.52,-169.47 128.73 06/29/2024 11:34:26 -74.50,-169.48 128.75 2.97 62
6 06/29/2024 12:24:08 74.44, -1.94 51.20 06/29/2024 12:23:52 74.46, -1.91 51.22 2.82 16
7 06/29/2024 13:14:38 -73.71, 167.24 129.49 06/29/2024 13:13:33 -73.78, 164.14 129.49 96.75 65
8 07/02/2024 03:00:13 74.95, 137.69 51.87 07/02/2024 03:01:21 74.84, 139.62 51.79 57.36 68
9 07/02/2024 03:50:48 -74.48, -53.65 128.59 07/02/2024 03:50:56 -74.47, -53.67 128.60 1.25 8
10 07/02/2024 04:41:32 74.40, 113.89 51.34 07/02/2024 04:40:23 74.38, 113.77 51.32 3.61 69
11 07/04/2024 19:17:28 74.49,-105.28 51.65 07/04/2024 19:17:57 74.48,-105.39 51.64 3.39 29
12 07/04/2024 20:08:12 -74.44, 62.16 128.40 07/04/2024 20:07:25 -74.46, 62.21 128.37 3.26 47



Historial Predications of SNOs between FY3D and LANDSAT-8
